{"data":{"norad_id":52370,"epoch":"2026-09-20T01:43:14.327040Z","epoch_age_seconds":96656,"freshness":"FRESH","line1":"1 52370U 22045AR  26263.07169360  .00003459  00000+0  11651-3 0  9998","line2":"2 52370  53.1623  27.6403 0001085  88.4536 271.6590 15.33534302245380","mean_motion":15.33534302,"eccentricity":0.0001085,"inclination_deg":53.1623,"raan_deg":27.6403,"arg_perigee_deg":88.4536,"mean_anomaly_deg":271.659,"bstar":0.00011651,"rev_number":24538,"period_min":93.900736235374,"perigee_km":464.53497697734,"apogee_km":466.01999792112,"semimajor_km":6843.4144874492,"source":"CELESTRAK","updated_at":"2026-09-20T09:00:40.028708Z"}}